Terminal Aerodrome Forecast
Issued by NWS Tuscon, AZ

Home | Current Version | Previous Version | Text Only | Print | Product List | Glossary On
Versions: 1 2 3 4 5 6 7 8 9 10 11 12
000
FTUS45 KTWC 271100
TAFDUG
TAF
KDUG 271120Z 2712/2812 VRB04KT P6SM SKC
     FM271700 09009KT P6SM SKC
     FM280400 03006KT P6SM SKC
     FM281000 VRB03KT P6SM SKC=

USA.gov is the U.S. government's official web portal to all federal, state and local government web resources and services.